sat.trackr.live / text

‹ back to catalog

QIANFAN-89

NORAD 63175 · 2025-046S

PAYLOAD ACTIVE UNKNOWN

§ Identity

Operator
Country
PRC
Launch date
2025-03-11
Launch site
WSC
Launch vehicle
Mass (kg)
RCS (m²)

External: N2YO · Heavens-Above · Gunter

§ Orbital elements

Epoch: 2026-09-22T21:47:46.223232Z

Period
106.59 min
Inclination
88.9641°
Eccentricity
0.0017424
Mean motion
13.51020579 rev/d
Perigee alt
1,055.5 km
Apogee alt
1,081.5 km
Semi-major
7,446.6 km
B*
1.2445e-4
RAAN
290.5331°
Arg perigee
31.1110°
Mean anomaly
329.1069°
Rev number
8,577

§ Raw data

QIANFAN-891 63175U 25046S   26265.90817388  .00000093  00000+0  12445-3 0  99942 63175  88.9641 290.5331 0017424  31.1110 329.1069 13.51020579 85778

JSON: /api/v1/satellites/63175 · /tle

For live sub-satellite position, see the globe view (requires WebGL).

§ Visibility from observer

Set your observer location to see the next 7 days of passes ≥ 10°. The values pass through the URL so the page stays shareable.

No JS? Fill the form by hand. The geolocation button needs JavaScript.